Export;EXP-2023-01 (20230706 13:12);;;StationsCode;NL01484;NL01485;NL01495;NL01496;NL10133;NL10318;NL10444;NL10644;NL10644;NL10722;NL10934;NL49016;NL49551;NL49553;NL49704
Periode;20180101 00:00 - 20190101 00:00;;;BeheerderMeetStation;DCMR;DCMR;DCMR;DCMR;RIVM;RIVM;RIVM;RIVM;RIVM;RIVM;RIVM;GGD A'dam;GGD A'dam;GGD A'dam;GGD A'dam
Bron;https://data.rivm.nl/data/luchtmeetnet;;;StationsNaam;Botlek-Oude Maasweg;Hoogvliet-Leemkuil;Maassluis-Kwartellaan;Hoek v. Holland-Berghaven;Wijnandsrade-Opfergeltstraat;Philippine-Stelleweg;De Zilk-Vogelaarsdreef;Cabauw-Wielsekade;Cabauw-Wielsekade;Eibergen-Lintveldseweg;Kollumerwaard-Hooge Zuidwal;Amsterdam-Westerpark;IJmuiden-Kanaaldijk;Wijk aan Zee-Burgemeester Rothestraat;Amsterdam-Hoogtij
Beschrijving data;https://data.rivm.nl/data/luchtmeetnet/readme.pdf;;;Latitude,Longitude;(51.888889,4.3125);(51.867411,4.355242);(51.932039,4.228025);(51.977803,4.121944);(50.902281,5.881748);(51.294498,3.749484);(52.296556,4.510817);(51.974489,4.923301);(51.974489,4.923301);(52.091801,6.605367);(53.330425,6.276815);(52.393972,4.870157);(52.463039,4.601842);(52.493992,4.601986);(52.428017,4.773478)
Accreditatienummer;https://www.rva.nl/alle-geaccrediteerden/;;;StationsGebied;stad;stad;stad;voorstad;regionaal;regionaal;regionaal;regionaal;regionaal;regionaal;regionaal;stad;stad;stad;regionaal
;;;;StationsType;industrie;achtergrond;achtergrond;industrie;achtergrond;achtergrond;achtergrond;achtergrond;achtergrond;achtergrond;achtergrond;achtergrond;industrie;industrie;industrie
;;;;Meetprincipe;Ultraviolet fluorescentie (UV-F);Ultraviolet fluorescentie (UV-F);Ultraviolet fluorescentie (UV-F);Ultraviolet fluorescentie (UV-F);Ultraviolet fluorescentie (UV-F);Ultraviolet fluorescentie (UV-F);Ultraviolet fluorescentie (UV-F);Ultraviolet fluorescentie (UV-F);Ultraviolet fluorescentie (UV-F);Ultraviolet fluorescentie (UV-F);Ultraviolet fluorescentie (UV-F);Ultraviolet fluorescentie (UV-F);Ultraviolet fluorescentie (UV-F);Ultraviolet fluorescentie (UV-F);Ultraviolet fluorescentie (UV-F)
;;;;Meetopstelling;Teledyne API 100E UV Fluorescent SO2 Analyser;Teledyne API 100E UV Fluorescent SO2 Analyser;Teledyne API 100E UV Fluorescent SO2 Analyser;Teledyne API 100E UV Fluorescent SO2 Analyser;Thermo model 43i SO2 analyser;Thermo model 43i SO2 analyser;Thermo model 43i SO2 analyser;Thermo model 43i SO2 analyser;Thermo model 43w SO2 analyser;Thermo model 43i SO2 analyser;Thermo model 43i SO2 analyser;Thermo model 43i SO2 analyser;Thermo model 43i SO2 analyser;Thermo model 43i SO2 analyser;Thermo model 43i SO2 analyser
;;;;Accreditatienummer;L520;L520;L520;L520;L224;L224;L224;L224;L224;L224;L224;L426;L426;L426;L426
Component;Bep.periode;Eenheid; Begindatumtijd;Einddatumtijd;NL01484;NL01485;NL01495;NL01496;NL10133;NL10318;NL10444;NL10644;NL10644;NL10722;NL10934;NL49016;NL49551;NL49553;NL49704
SO2;uur;�g/m�;20180101 00:00;20180101 01:00;27.1;8.7;4.2;2.9;;;4.45;;0.76;0.35;0.3;1.4;5.8;8.2;3.5
SO2;uur;�g/m�;20180101 01:00;20180101 02:00;27.1;3.3;3.5;3;;;3.31;;-0.12;0.31;0.47;0.8;2;11;5.2
SO2;uur;�g/m�;20180101 02:00;20180101 03:00;4.6;1.6;3.7;2.7;;;0.67;;-0.37;0.29;0.88;0.4;2.8;5.2;1.9
SO2;uur;�g/m�;20180101 03:00;20180101 04:00;2.2;1.1;2;2.7;;;0.52;;-0.59;0.44;0.64;0.1;3.3;2.8;1.2
SO2;uur;�g/m�;20180101 04:00;20180101 05:00;1.9;0.7;1.4;2.8;;;0.27;;-0.76;0.26;0.23;0.1;2.9;2.3;1.3
SO2;uur;�g/m�;20180101 05:00;20180101 06:00;2.9;0.6;1.5;3.6;;;0.27;;-0.41;0.24;0.21;0.1;1.7;2.5;1.3
SO2;uur;�g/m�;20180101 06:00;20180101 07:00;1.8;0.9;1.6;2.4;;;0.26;;-0.43;0.25;0.2;0.1;1.5;1.6;1.3
SO2;uur;�g/m�;20180101 07:00;20180101 08:00;6.2;0.3;2.1;3.3;;;0.31;;-0.74;0.21;0.21;0.1;1.2;2;1.5
SO2;uur;�g/m�;20180101 08:00;20180101 09:00;12.1;-1.3;1.8;3.7;;;0.32;;-0.56;0.24;0.21;0.1;2.1;2.3;1.5
SO2;uur;�g/m�;20180101 09:00;20180101 10:00;18.2;0.6;1.9;2.9;;;0.65;;-0.45;0.3;0.19;0.3;1.6;2.8;1.7
SO2;uur;�g/m�;20180101 10:00;20180101 11:00;11.8;0.9;2.2;2.1;;;0.98;;-0.07;0.25;0.44;0.5;1;2.3;2.3
SO2;uur;�g/m�;20180101 11:00;20180101 12:00;10;0.4;1.8;2;;;1.34;;0.21;0.24;0.4;0.5;3.3;8.3;1.9
SO2;uur;�g/m�;20180101 12:00;20180101 13:00;10;2.1;1.6;3;;;1.45;;0.72;0.2;0.5;0.5;2.6;10.6;1.8
SO2;uur;�g/m�;20180101 13:00;20180101 14:00;11;1.6;2;2.7;;;1.06;;0.68;0.23;0.44;0.6;2.5;12.2;2
SO2;uur;�g/m�;20180101 14:00;20180101 15:00;6.3;1.2;3.5;3.8;;;0.9;;0.48;0.25;0.42;0.5;2.9;13.1;2.7
SO2;uur;�g/m�;20180101 15:00;20180101 16:00;3.8;1.4;2.6;4.2;;;1.26;;-0.1;13.92;0.42;0.4;2.1;18;4
SO2;uur;�g/m�;20180101 16:00;20180101 17:00;3.2;1.5;2;3.3;;;1.89;;-0.87;1.13;0.44;0.2;2.6;17.4;3.7
SO2;uur;�g/m�;20180101 17:00;20180101 18:00;3.9;1.3;2.3;2.6;;;1.26;;-1.04;0.43;0.38;0.2;2.9;19;2.4
SO2;uur;�g/m�;20180101 18:00;20180101 19:00;3;4.9;2.3;2.9;;;0.63;;-0.85;0.27;0.31;0.1;2.7;7.9;2
SO2;uur;�g/m�;20180101 19:00;20180101 20:00;8.6;8.8;2.2;2.6;;;0.32;;-0.93;0.32;0.23;0.2;1.7;3.2;2
SO2;uur;�g/m�;20180101 20:00;20180101 21:00;13.9;4.2;2.3;2.6;;;0.31;;-0.36;0.34;0.21;0.1;1.1;;1.5
SO2;uur;�g/m�;20180101 21:00;20180101 22:00;6.6;1.8;1.8;2.4;;;0.26;;-0.63;0.24;0.26;0.1;2.8;2.8;1.3
SO2;uur;�g/m�;20180101 22:00;20180101 23:00;5.5;0.8;1.3;2.1;;;0.3;;0.14;0.2;0.25;0.1;1.9;2.8;1.1
SO2;uur;�g/m�;20180101 23:00;20180102 00:00;5;0.3;1.1;2.7;;;0.27;;-0.42;0.16;0.27;0.2;1.1;2.2;1.3
SO2;uur;�g/m�;20180102 00:00;20180102 01:00;5.5;1.7;1.7;2.2;;;0.25;;-0.03;0.16;0.22;0.1;3;2.4;1.5
SO2;uur;�g/m�;20180102 01:00;20180102 02:00;13.4;11;3.8;1.7;;;0.26;;-0.16;0.17;0.16;0.1;1.4;1.6;1.3
SO2;uur;�g/m�;20180102 02:00;20180102 03:00;9.1;19.9;2;1.6;;;0.23;;-0.1;0.15;0.21;0;0.9;2;1.1
SO2;uur;�g/m�;20180102 03:00;20180102 04:00;5.8;10.5;0.9;1.7;;;0.27;;-0.52;0.17;0.22;0.1;2.7;1.6;1.2
SO2;uur;�g/m�;20180102 04:00;20180102 05:00;5.5;9;0.7;1;;;0.43;;-0.3;0.18;-0.11;0.1;2;2.5;1.5
SO2;uur;�g/m�;20180102 05:00;20180102 06:00;5.6;16.3;0.7;0.8;;;0.37;;-0.11;0.21;-0.07;0.2;1;2.8;3.3
SO2;uur;�g/m�;20180102 06:00;20180102 07:00;4.9;9.7;0.5;0.6;;;0.28;;-0.02;0.2;-0.1;0.3;2.8;2.4;2.6
SO2;uur;�g/m�;20180102 07:00;20180102 08:00;15.2;15.1;2.1;1.1;;;0.39;;-0.19;0.19;-0.12;0.2;;1.9;1.6
SO2;uur;�g/m�;20180102 08:00;20180102 09:00;8.2;0.9;2.2;0.9;;;0.45;;0.12;0.2;-0.1;0.2;;2.1;1.8
SO2;uur;�g/m�;20180102 09:00;20180102 10:00;5.9;1;0.6;1;;;0.49;;0.49;0.2;-0.12;0.2;2.6;2.2;1.4
SO2;uur;�g/m�;20180102 10:00;20180102 11:00;6.3;0.3;1.3;0.9;;;0.54;;1.11;0.22;-0.12;0.1;2.6;1.9;1.6
SO2;uur;�g/m�;20180102 11:00;20180102 12:00;2.9;-0.2;1.6;2.6;;;0.49;;1.09;0.25;-0.07;0.1;2.9;2.5;1.6
SO2;uur;�g/m�;20180102 12:00;20180102 13:00;1.5;-0.2;1.9;2.2;;;0.43;;0.21;0.35;-0.08;0.1;2.2;2.4;1.8
SO2;uur;�g/m�;20180102 13:00;20180102 14:00;4.3;-0.1;1.3;2.4;;;0.41;;-0.12;0.35;-0.12;0.1;0.2;2.5;2.4
SO2;uur;�g/m�;20180102 14:00;20180102 15:00;7;1.3;1.6;2.2;;;1.22;;-0.07;0.36;-0.05;0.1;2.9;3.8;1.9
SO2;uur;�g/m�;20180102 15:00;20180102 16:00;5;1.9;2.3;3.8;;;1.83;;0.48;0.26;-0.02;0.2;1.9;12.6;3
SO2;uur;�g/m�;20180102 16:00;20180102 17:00;5;2.1;2.4;4.6;;;2.01;;0.96;0.37;0.03;0.4;2.3;19.1;4.5
SO2;uur;�g/m�;20180102 17:00;20180102 18:00;3.9;1.5;3.2;3.2;;;4.46;;1.08;0.41;0;0.3;3.2;9.5;4.5
SO2;uur;�g/m�;20180102 18:00;20180102 19:00;5.3;1.7;2.8;1.4;;;2.12;;0.67;0.37;0.06;0.2;2.3;13.9;3
SO2;uur;�g/m�;20180102 19:00;20180102 20:00;6;1.7;2.7;1.5;;;0.89;;0;0.34;0.22;0.1;1.7;7.2;2.2
SO2;uur;�g/m�;20180102 20:00;20180102 21:00;3.1;1.4;3.6;4.6;;;1.1;;-0.03;0.25;0.04;0.1;1.7;10.7;1.9
SO2;uur;�g/m�;20180102 21:00;20180102 22:00;7.8;1.5;4.1;2.3;;;0.96;;-0.11;0.3;-0.06;0.1;1.8;21.2;2.1
SO2;uur;�g/m�;20180102 22:00;20180102 23:00;5.3;1;4.5;2.7;;;1.02;;0.25;0.27;-0.1;0.1;2.2;15.2;2.1
SO2;uur;�g/m�;20180102 23:00;20180103 00:00;7.2;1.5;4.3;2.4;;;1.1;;0.2;0.23;-0.11;0.2;2.7;11.6;1.4
SO2;uur;�g/m�;20180103 00:00;20180103 01:00;3.4;1.8;4.3;4.4;;;0.65;;-0.23;0.19;-0.07;0.2;;16.4;1.4
SO2;uur;�g/m�;20180103 01:00;20180103 02:00;3.1;1.8;4.8;4.4;;;1.21;;-0.63;0.22;-0.14;0.1;1.9;10.2;1.3
SO2;uur;�g/m�;20180103 02:00;20180103 03:00;3.8;1.8;5.3;4.5;;;0.75;;-0.76;0.21;-0.13;0;2;13.8;0.9
SO2;uur;�g/m�;20180103 03:00;20180103 04:00;7.7;2.1;5.5;2.6;;;0.48;;-1.06;0.2;-0.16;0.1;1.4;5.4;0.7
SO2;uur;�g/m�;20180103 04:00;20180103 05:00;3.4;2.2;6;2.9;;;0.25;;-0.32;0.07;-0.06;0;2.1;2.7;0.8
SO2;uur;�g/m�;20180103 05:00;20180103 06:00;3.4;2.1;6.3;2.6;;;0.2;;0.08;0.06;-0.09;0;2.2;2.4;0.6
SO2;uur;�g/m�;20180103 06:00;20180103 07:00;3.5;4.4;6.3;2;;;0.15;;-0.8;0.1;-0.06;0;;2.6;-0.2
SO2;uur;�g/m�;20180103 07:00;20180103 08:00;7.3;3.8;6.1;3.7;;;0.16;;-1.39;0.09;-0.11;0;3.5;2;0.1
SO2;uur;�g/m�;20180103 08:00;20180103 09:00;5.5;2.1;5.6;2.3;;;0.14;;-0.29;0.04;-0.1;0;1.6;1.8;0
SO2;uur;�g/m�;20180103 09:00;20180103 10:00;5.6;1.5;5.3;3.5;;;0.15;;-0.01;0.17;-0.11;0;2.6;2.7;-0.1
SO2;uur;�g/m�;20180103 10:00;20180103 11:00;6;1.8;5.2;2;;;0.12;;0.32;0.16;-0.16;0;1;2.1;0.5
SO2;uur;�g/m�;20180103 11:00;20180103 12:00;5.1;2.1;5.1;1.6;;;0.21;;-0.01;0.04;-0.16;0;0.7;1.7;0
SO2;uur;�g/m�;20180103 12:00;20180103 13:00;4.7;1.5;4.9;1.6;;;0.18;;0.74;0.03;-0.19;0;2.4;1.8;0
SO2;uur;�g/m�;20180103 13:00;20180103 14:00;4;1.9;4.8;1.4;;;0.18;;0.33;0.07;-0.14;0;2.4;2.2;-0.1
SO2;uur;�g/m�;20180103 14:00;20180103 15:00;4.4;1;4.4;1.5;;;0.17;;0.19;0.04;-0.15;0;1.9;1.8;0
SO2;uur;�g/m�;20180103 15:00;20180103 16:00;5.9;1.1;4.1;1.3;;;0.17;;-0.39;0.03;-0.14;0;2.2;1.5;0.1
SO2;uur;�g/m�;20180103 16:00;20180103 17:00;5.3;1;4.1;1.1;;;0.19;;0.19;0.03;-0.12;0.2;0.8;2.2;-0.1
SO2;uur;�g/m�;20180103 17:00;20180103 18:00;5.2;0.5;3.9;1.2;;;0.19;;-0.29;0.01;-0.12;0.1;2.5;2.2;0
SO2;uur;�g/m�;20180103 18:00;20180103 19:00;4.8;0.8;4.2;2;;;0.17;;0.19;0.05;-0.04;0.1;1.9;2.2;0.2
SO2;uur;�g/m�;20180103 19:00;20180103 20:00;4.1;0.6;4.2;4.8;;;0.16;;-0.28;0.08;0.02;0.1;0.9;1.8;0.1
SO2;uur;�g/m�;20180103 20:00;20180103 21:00;4.3;-0.4;4.1;1.7;;;0.21;;-0.52;0.04;0.05;0.1;1.8;2.2;0.1
SO2;uur;�g/m�;20180103 21:00;20180103 22:00;2.2;0.3;4.6;5.5;;;0.19;;-0.36;0.08;0.17;0.1;2.2;1.3;0.4
SO2;uur;�g/m�;20180103 22:00;20180103 23:00;1.9;0.7;4.8;9.2;;;0.18;;-0.01;0.06;0.07;0.1;1.8;;0.2
SO2;uur;�g/m�;20180103 23:00;20180104 00:00;1.9;0.5;5.3;8.1;;;0.23;;0.55;0.08;-0.03;0;2;2.6;0.2
SO2;uur;�g/m�;20180104 00:00;20180104 01:00;2.1;0.7;4.7;9.4;;;0.27;;-0.12;0.11;0.04;0.1;1.2;1.7;0.3
SO2;uur;�g/m�;20180104 01:00;20180104 02:00;2;0.5;5.5;3.1;;;0.22;;0.43;0.07;-0.05;0.1;2.6;2.2;0.7
SO2;uur;�g/m�;20180104 02:00;20180104 03:00;2.2;0.8;5.6;2.7;;;0.21;;-0.51;0.11;-0.06;0.1;2.1;2.3;0.2
SO2;uur;�g/m�;20180104 03:00;20180104 04:00;1.9;0.9;5.6;2.2;;;0.21;;0.11;0.13;-0.03;0.1;1.6;2.2;0.2
SO2;uur;�g/m�;20180104 04:00;20180104 05:00;1.8;0.3;5.1;3.2;;;0.23;;-0.48;0.21;0.16;0.1;1;2.6;0.3
SO2;uur;�g/m�;20180104 05:00;20180104 06:00;1.4;0.4;4.5;2.5;;;0.18;;-0.37;0.22;0.16;0.1;1.9;1.9;0.3
SO2;uur;�g/m�;20180104 06:00;20180104 07:00;1.9;0.6;4.3;2.5;;;0.23;;-0.36;0.28;0.23;0.1;2.1;2;0.2
SO2;uur;�g/m�;20180104 07:00;20180104 08:00;2.1;1.4;5;2.4;;;0.2;;-1.04;0.27;0.19;0.1;1.6;2.2;0.6
SO2;uur;�g/m�;20180104 08:00;20180104 09:00;2.4;1.2;5.8;2.6;;;0.27;;-0.57;0.35;0.19;0.1;1.7;1.9;0.5
SO2;uur;�g/m�;20180104 09:00;20180104 10:00;9.3;1.5;5.1;2.3;;;0.33;;-0.6;0.49;0.19;0.1;1.3;2;0.8
SO2;uur;�g/m�;20180104 10:00;20180104 11:00;3.7;1.7;5.2;2.8;;;0.3;;-0.56;0.47;0.2;0.1;1.9;3;0.8
SO2;uur;�g/m�;20180104 11:00;20180104 12:00;3.2;2.1;4.9;2.7;;;1.81;;-0.27;;0.34;0.2;1.9;11.7;1.1
SO2;uur;�g/m�;20180104 12:00;20180104 13:00;7;1.8;4.6;2.9;;;2.22;;0.44;;0.15;0.3;1.7;23.4;2.7
SO2;uur;�g/m�;20180104 13:00;20180104 14:00;14.1;2.9;5.3;2.8;;;2.68;;0.26;;0.26;0.2;2.5;10.8;2
SO2;uur;�g/m�;20180104 14:00;20180104 15:00;7;2.6;5.4;3.6;;;0.34;;0.05;;0.42;0.1;1.3;8.1;1
SO2;uur;�g/m�;20180104 15:00;20180104 16:00;3.7;2.1;5.7;2.9;;;0.56;;-0.42;;0.28;0.1;1.7;13.3;1.2
SO2;uur;�g/m�;20180104 16:00;20180104 17:00;2.9;1.7;6.4;2.8;;;0.29;;-0.64;;0.18;0.1;1.6;7.8;0.7
SO2;uur;�g/m�;20180104 17:00;20180104 18:00;2.6;1.2;6.5;2.4;;;0.18;;-1.03;;0.11;0.1;0.8;3.3;0.2
SO2;uur;�g/m�;20180104 18:00;20180104 19:00;2.6;1.1;5.9;2.6;;;0.15;;-0.62;;0.14;0.1;1.5;2.1;0.2
SO2;uur;�g/m�;20180104 19:00;20180104 20:00;2.6;1.2;5.3;5.5;;;0.18;;-0.6;;0.2;0;2.2;2.3;0
SO2;uur;�g/m�;20180104 20:00;20180104 21:00;7.7;1.8;5.8;1.8;;;0.17;;-0.08;;0.16;0;-0.1;1.8;-0.2
SO2;uur;�g/m�;20180104 21:00;20180104 22:00;6.5;1.4;5.4;2.1;;;0.15;;-0.29;;0.09;0.1;2.1;2.3;-0.2
SO2;uur;�g/m�;20180104 22:00;20180104 23:00;3.7;2;5.3;3.6;;;0.14;;-0.5;;0.08;0;2.1;2.3;-0.1
SO2;uur;�g/m�;20180104 23:00;20180105 00:00;2.1;1;5.4;2.3;;;0.14;;-0.92;;0.1;0;1.6;1.9;0.3
SO2;uur;�g/m�;20180105 00:00;20180105 01:00;2;2;5.3;1.7;;;0.18;;-0.21;;0.11;0.1;0.7;2.8;0.2
SO2;uur;�g/m�;20180105 01:00;20180105 02:00;2.1;2.3;5.4;1.1;;;0.21;;-0.59;;0.13;0;2;2.5;0.7
SO2;uur;�g/m�;20180105 02:00;20180105 03:00;2.7;1.9;5.8;2.8;;;0.17;;-0.75;;0.17;0.1;;2;0.8
SO2;uur;�g/m�;20180105 03:00;20180105 04:00;7.5;2.5;6.8;1.8;;;0.19;;-0.46;;0.19;0.1;0.6;2.1;1.1
SO2;uur;�g/m�;20180105 04:00;20180105 05:00;4;7.9;6.6;1.8;;;0.14;;0.12;;0.22;0;1;2.2;0.6
SO2;uur;�g/m�;20180105 05:00;20180105 06:00;4.7;10.1;6.8;2.5;;;0.1;;-0.3;0.32;0.16;0.1;1.6;1.5;1
SO2;uur;�g/m�;20180105 06:00;20180105 07:00;3.1;2.7;5.9;2.4;;;0.17;;-0.49;0.26;0.14;0;1.4;1.7;1
SO2;uur;�g/m�;20180105 07:00;20180105 08:00;7.4;2.6;5.8;2.3;;;0.15;;0.4;0.26;0.18;0;2.4;2.9;1.4
SO2;uur;�g/m�;20180105 08:00;20180105 09:00;5.6;2.5;5.5;2.5;;;0.19;;0.21;0.26;0.21;0.1;1.9;2;1.9
SO2;uur;�g/m�;20180105 09:00;20180105 10:00;2.6;2.5;5.6;3.2;;;0.22;;-0.11;;0.21;;1.9;2.1;1.6
SO2;uur;�g/m�;20180105 10:00;20180105 11:00;2.9;1.9;5.4;3.1;;;0.25;;0.08;;0.28;;2.2;1.6;2
SO2;uur;�g/m�;20180105 11:00;20180105 12:00;9.1;3;4.2;2;;;0.6;;0.33;;0.25;0.8;1.8;6.3;2
SO2;uur;�g/m�;20180105 12:00;20180105 13:00;8.3;3.3;4.5;2;;;0.57;;-0.03;;0.32;0.8;1.1;8.6;2.6
SO2;uur;�g/m�;20180105 13:00;20180105 14:00;4.7;2.5;4.5;1.6;;;1.33;;-0.17;;0.36;1.1;2.1;13;3.9
SO2;uur;�g/m�;20180105 14:00;20180105 15:00;3.2;2.6;4.2;2.1;;;1.31;;0.19;;0.28;1.2;1;11.2;3.8
SO2;uur;�g/m�;20180105 15:00;20180105 16:00;3.8;5.5;6.4;1.6;;;0.19;;-0.29;;0.29;0.9;0;3.2;2.6
SO2;uur;�g/m�;20180105 16:00;20180105 17:00;4.9;2.5;5.1;2.3;;;0.14;;-0.47;;0.31;0.4;1.8;8.3;2.2
SO2;uur;�g/m�;20180105 17:00;20180105 18:00;9.5;2.5;4.5;1.9;;;0.15;;-0.87;;0.26;0.8;1.8;15.6;3.4
SO2;uur;�g/m�;20180105 18:00;20180105 19:00;15.7;2.9;4.3;1.7;;;0.72;;-0.55;;0.26;0.4;2.8;27.6;4.8
SO2;uur;�g/m�;20180105 19:00;20180105 20:00;16.1;2.5;4.5;2.3;;;1.26;;-0.91;;0.26;0.5;2.3;21.8;4.6
SO2;uur;�g/m�;20180105 20:00;20180105 21:00;22.3;2;4.2;5.9;;;1.1;;-0.35;;0.21;0.5;2;10.8;3.5
SO2;uur;�g/m�;20180105 21:00;20180105 22:00;25.4;2.3;4.2;5.5;;;0.73;;0.03;;0.28;0.7;1.9;5.8;2.7
SO2;uur;�g/m�;20180105 22:00;20180105 23:00;27.5;2.5;4.2;4.5;;;0.83;;0.32;;0.4;0.7;2.8;6.6;4
SO2;uur;�g/m�;20180105 23:00;20180106 00:00;23.6;2.4;4.1;2;;;0.54;;0.22;;0.57;1;2.4;4;3.6
SO2;uur;�g/m�;20180106 00:00;20180106 01:00;12.7;2;4.3;3;;;0.79;;-0.07;;0.51;1;2.7;;2.9
SO2;uur;�g/m�;20180106 01:00;20180106 02:00;3.4;1.9;4.9;2.3;;;0.69;;0.21;;0.56;0.9;1.8;2.6;3.4
SO2;uur;�g/m�;20180106 02:00;20180106 03:00;3;2.2;6.2;2.7;;;0.77;;-0.13;;0.57;0.8;3.1;2.4;3
SO2;uur;�g/m�;20180106 03:00;20180106 04:00;4.6;1.8;5.7;1.7;;;0.59;;0.51;;0.5;0.6;2.3;3.1;2.9
SO2;uur;�g/m�;20180106 04:00;20180106 05:00;5.6;1.8;4.2;3.1;;;0.73;;0.57;;0.14;0.4;2.4;2.8;3.2
SO2;uur;�g/m�;20180106 05:00;20180106 06:00;4;1.5;4.1;2.1;;;0.64;;-0.09;0.32;0.1;0.3;1.9;2.6;3.1
SO2;uur;�g/m�;20180106 06:00;20180106 07:00;3.8;1.4;3.6;2;;;0.62;;0.25;0.38;-0.05;0.4;2.8;2.5;2.7
SO2;uur;�g/m�;20180106 07:00;20180106 08:00;3.7;1.4;3.7;1.8;;;0.31;;0.55;0.32;-0.12;0.5;2.4;2.1;2.7
SO2;uur;�g/m�;20180106 08:00;20180106 09:00;4.4;1.4;3.3;2.6;;;0.17;;0.4;0.27;-0.16;0.7;2.1;1.9;3.4
SO2;uur;�g/m�;20180106 09:00;20180106 10:00;3.5;1.8;3.5;7.5;;;0.38;;0.92;0.28;-0.16;0.8;7;2.3;3.8
SO2;uur;�g/m�;20180106 10:00;20180106 11:00;4.7;2.7;4.2;4.6;;;0.61;;0.88;0.29;-0.15;0.9;4.2;2.8;7.4
SO2;uur;�g/m�;20180106 11:00;20180106 12:00;6.8;2.1;10.9;9.4;;;0.81;;0.57;0.34;-0.16;1.7;1.5;1.8;4.4
SO2;uur;�g/m�;20180106 12:00;20180106 13:00;11.5;2.4;14.2;9;;;0.55;;1.03;0.47;-0.16;1.9;2.8;2.3;4
SO2;uur;�g/m�;20180106 13:00;20180106 14:00;4;7.4;8.4;2.1;;;0.41;;0.96;0.67;-0.13;1.6;4.9;2.3;2.6
SO2;uur;�g/m�;20180106 14:00;20180106 15:00;3;27.6;3.9;1.3;;;0.34;;-0.18;0.65;-0.18;0.9;6;2.4;2.5
SO2;uur;�g/m�;20180106 15:00;20180106 16:00;2.9;44.6;2.8;0.8;;;0.27;;0.33;0.5;-0.16;0.7;7.1;2.7;2.8
SO2;uur;�g/m�;20180106 16:00;20180106 17:00;1.6;10.2;2.1;0.6;;;0.2;;0.14;0.41;-0.12;0.8;5.7;2.3;3.2
SO2;uur;�g/m�;20180106 17:00;20180106 18:00;1;7.5;2;0.3;;;0.17;;0;0.3;-0.15;1.3;2.9;2.8;4.3
SO2;uur;�g/m�;20180106 18:00;20180106 19:00;0.8;2.4;1.8;0.2;;;0.19;;0.45;0.29;-0.15;1.5;2.8;2;5.1
SO2;uur;�g/m�;20180106 19:00;20180106 20:00;0.6;1.9;1.9;0.3;;;0.22;;0.67;0.28;-0.14;1.5;3.1;1.8;3.2
SO2;uur;�g/m�;20180106 20:00;20180106 21:00;0.5;0.9;1.5;0.2;;;0.22;;0.34;0.23;-0.11;1.8;2.7;2.4;2.2
SO2;uur;�g/m�;20180106 21:00;20180106 22:00;0.5;0.4;1.3;0.3;;;0.24;;0.76;0.25;-0.11;1.6;2.3;2.1;2.2
SO2;uur;�g/m�;20180106 22:00;20180106 23:00;0.6;;1.1;0.1;;;0.24;;0.24;0.27;-0.09;1.5;3.1;2.5;1.9
SO2;uur;�g/m�;20180106 23:00;20180107 00:00;0.4;;0.9;-0.1;;;0.25;;0.45;0.26;-0.12;1.9;4.6;2.4;2.8
SO2;uur;�g/m�;20180107 00:00;20180107 01:00;0.2;-0.2;0.4;-0.5;;;0.25;;0.51;0.29;-0.11;1.4;2.8;2.1;2.2
SO2;uur;�g/m�;20180107 01:00;20180107 02:00;0.2;-0.1;1;-0.3;;;0.27;;0.25;0.61;-0.11;1.1;3.1;3;1.8
SO2;uur;�g/m�;20180107 02:00;20180107 03:00;-0.1;-0.3;1.4;-0.3;;;0.22;;0.45;0.48;-0.12;0.7;3.9;2.4;1.5
SO2;uur;�g/m�;20180107 03:00;20180107 04:00;0.1;-0.2;1.2;-0.5;;;0.24;;0.18;0.4;-0.1;0.6;3.2;1.7;1.4
SO2;uur;�g/m�;20180107 04:00;20180107 05:00;-0.1;-0.2;1.1;-0.7;;;0.41;;0.2;0.58;0.22;0.5;;2.4;1.4
SO2;uur;�g/m�;20180107 05:00;20180107 06:00;-0.1;-0.4;0.8;-0.6;;;0.45;;0.57;0.48;0.17;0.4;2.4;2.6;1.3
SO2;uur;�g/m�;20180107 06:00;20180107 07:00;-0.1;-0.6;0.2;-0.5;;;;;-0.16;;;0.3;1.7;2.9;1.3
SO2;uur;�g/m�;20180107 07:00;20180107 08:00;-0.4;-1;0.9;-0.6;;;0.64;;0.53;;0.3;0.3;1.7;2.3;1.2
SO2;uur;�g/m�;20180107 08:00;20180107 09:00;-0.2;-0.7;-0.1;-0.6;;;0.53;;0.11;;0.18;0.3;3.4;2.5;1.6
SO2;uur;�g/m�;20180107 09:00;20180107 10:00;-0.2;-1.2;-0.6;-0.8;;;0.65;;0.43;;0.22;0.3;2;2.9;1.4
SO2;uur;�g/m�;20180107 10:00;20180107 11:00;0.1;-0.6;0.9;-0.7;;;0.65;;0.28;;0.29;0.3;3.7;2.9;1.5
SO2;uur;�g/m�;20180107 11:00;20180107 12:00;0;-0.7;0.9;-0.4;;;0.85;;0.5;;0.39;0.4;2.3;2.7;1.2
SO2;uur;�g/m�;20180107 12:00;20180107 13:00;0.1;0;0.8;-0.5;;;0.74;;0.56;;0.43;0.4;2;2.8;0.7
SO2;uur;�g/m�;20180107 13:00;20180107 14:00;-0.1;-0.1;0.7;-0.6;;;0.84;;1.24;;0.27;0.4;2;2.8;1.1
SO2;uur;�g/m�;20180107 14:00;20180107 15:00;-0.3;-1.1;0.9;-0.5;;;0.85;;0.45;;0.24;0.3;3.4;2.6;0.8
SO2;uur;�g/m�;20180107 15:00;20180107 16:00;-0.1;-1.1;0.8;-0.5;;;0.78;;1.11;;0.22;0.3;3.5;1.8;0.7
SO2;uur;�g/m�;20180107 16:00;20180107 17:00;-0.2;-0.4;0.9;-0.7;;;0.73;;1.18;;0.23;0.3;3.2;2.6;0.7
SO2;uur;�g/m�;20180107 17:00;20180107 18:00;0.1;-0.8;0.1;-0.5;;;0.71;;0.82;;0.21;0.3;2.4;2.6;0.7
SO2;uur;�g/m�;20180107 18:00;20180107 19:00;0.2;-1.1;0.1;-0.4;;;0.8;;0.58;;0.32;0.5;1.7;2.6;0.6
SO2;uur;�g/m�;20180107 19:00;20180107 20:00;-0.1;-1.5;0.6;-0.5;;;0.73;;0.73;;1.4;0.3;2.1;2.5;0.7
SO2;uur;�g/m�;20180107 20:00;20180107 21:00;0.2;-0.9;0;-0.5;;;0.72;;0.71;;0.86;0.3;2.3;3;0.7
SO2;uur;�g/m�;20180107 21:00;20180107 22:00;0.7;-0.7;0;-0.6;;;0.78;;0.71;;0.35;0.4;2.3;2.3;0.8
SO2;uur;�g/m�;20180107 22:00;20180107 23:00;0.3;-0.9;-0.1;-0.4;;;0.86;;0.63;;0.36;0.3;2.1;2.5;1.2
SO2;uur;�g/m�;20180107 23:00;20180108 00:00;-0.3;-1.3;0.3;-0.4;;;0.87;;0.22;;0.38;0.3;2.6;2.7;0.9
SO2;uur;�g/m�;20180108 00:00;20180108 01:00;-0.2;-1.1;-0.1;-0.4;;;0.84;;0.79;;0.28;0.3;2.3;2.6;1.1
SO2;uur;�g/m�;20180108 01:00;20180108 02:00;-0.1;-1.1;-0.1;-0.5;;;0.71;;0.08;;0.32;0.2;2.7;3.1;0.9
SO2;uur;�g/m�;20180108 02:00;20180108 03:00;0;-0.7;0.8;-0.5;;;0.65;;0.72;;0.44;0.2;2.4;;0.9
SO2;uur;�g/m�;20180108 03:00;20180108 04:00;-0.1;-1.1;0.1;-0.3;;;0.63;;0.63;;0.53;0.2;1.6;2.9;0.9
SO2;uur;�g/m�;20180108 04:00;20180108 05:00;0.2;-1.3;0;-0.5;;;0.35;;0.54;;0.58;0.2;2.5;2.5;0.8
SO2;uur;�g/m�;20180108 05:00;20180108 06:00;0.3;-1.1;0.6;-0.4;;;0.34;;0.47;0.31;0.63;0.2;2.6;2.9;0.8
SO2;uur;�g/m�;20180108 06:00;20180108 07:00;0.4;-0.2;0.4;-0.2;;;0.32;;0.56;0.36;0.62;0.2;2;3.7;
SO2;uur;�g/m�;20180108 07:00;20180108 08:00;0.5;-0.2;0.5;-0.2;;;0.35;;0.65;0.36;0.63;0.2;3;3.4;-0.2
SO2;uur;�g/m�;20180108 08:00;20180108 09:00;0.7;-0.3;0.7;-0.2;;;0.31;;0.41;0.41;0.6;0.3;1.6;3.1;-0.2
SO2;uur;�g/m�;20180108 09:00;20180108 10:00;2.8;0;0.2;0.2;;;0.35;;0.63;0.47;0.63;0.2;2.6;2.8;-0.2
SO2;uur;�g/m�;20180108 10:00;20180108 11:00;2.9;-0.2;0.7;0.1;;;0.5;;0.33;0.59;0.78;0.3;1.4;3.1;-0.1
SO2;uur;�g/m�;20180108 11:00;20180108 12:00;3.1;-0.5;0.3;0.7;;;0.65;;0.53;0.71;0.9;0.3;2.3;3.5;0
SO2;uur;�g/m�;20180108 12:00;20180108 13:00;3.5;0.2;0.4;0.3;;;0.65;;0.96;;0.8;0.4;1.9;3.8;0
SO2;uur;�g/m�;20180108 13:00;20180108 14:00;2.6;0.2;0.6;0.2;;;0.99;;1.18;;0.81;0.5;3.2;3.6;0.2
SO2;uur;�g/m�;20180108 14:00;20180108 15:00;2.2;0.3;0.9;0.2;;;0.79;;0.21;;0.64;0.4;3.5;3.6;0
SO2;uur;�g/m�;20180108 15:00;20180108 16:00;2.3;0.6;0.8;0.3;;;0.82;;0.25;;0.79;0.4;2.9;3.6;0.3
SO2;uur;�g/m�;20180108 16:00;20180108 17:00;1.8;0.1;0.7;0.4;;;0.77;;-0.15;;0.54;0.4;2.8;3.9;0.3
SO2;uur;�g/m�;20180108 17:00;20180108 18:00;2;0.4;0.6;0.5;;;0.88;;0.74;;0.37;0.4;2.7;4;0.3
SO2;uur;�g/m�;20180108 18:00;20180108 19:00;2.2;0.1;0.8;0.5;;;0.99;;0.9;1.71;0.7;0.6;3.5;4.1;0.8
SO2;uur;�g/m�;20180108 19:00;20180108 20:00;3.9;0.4;-0.1;0.6;;;1.3;;0.66;1.5;0.77;0.7;3.2;4.2;0.7
SO2;uur;�g/m�;20180108 20:00;20180108 21:00;2.5;0.7;0.1;0.5;;;1.39;;0.8;1.41;0.85;0.5;3.7;3.5;0.5
SO2;uur;�g/m�;20180108 21:00;20180108 22:00;4;2.6;0.8;0.5;;;1.65;;0.63;1.26;0.93;0.6;2.7;3.7;1.2
SO2;uur;�g/m�;20180108 22:00;20180108 23:00;2.4;3;0.1;0.5;;;1.34;;1.31;1.09;0.98;0.6;2.7;3.6;1.2
SO2;uur;�g/m�;20180108 23:00;20180109 00:00;2.6;2.5;0.3;0.4;;;1.04;;0.62;1.02;1.01;0.5;3;3.3;1
SO2;uur;�g/m�;20180109 00:00;20180109 01:00;1.8;2.5;1;0.6;;;0.95;;0.72;0.92;0.97;0.4;2.6;2.7;0.9
SO2;uur;�g/m�;20180109 01:00;20180109 02:00;2.8;2.3;0;0.6;;;0.78;;0.67;0.83;0.97;0.4;3.1;3.8;0.8
SO2;uur;�g/m�;20180109 02:00;20180109 03:00;2.7;2.3;0;0.7;;;0.74;;0.67;0.65;0.94;0.4;2.6;3.1;0.6
SO2;uur;�g/m�;20180109 03:00;20180109 04:00;2.8;2.1;1.2;0.8;;;0.75;;0.33;0.6;1.05;0.4;3.1;3.6;0.8
SO2;uur;�g/m�;20180109 04:00;20180109 05:00;3.7;3;0.9;0.7;;;0.63;;0.58;0.61;0.68;0.4;2.8;3.3;0.6
SO2;uur;�g/m�;20180109 05:00;20180109 06:00;3.4;2.8;0.6;0.7;;;0.67;;0.49;0.52;0.6;0.3;2.2;3;0.5
SO2;uur;�g/m�;20180109 06:00;20180109 07:00;3.6;2.7;1.6;0.9;;;0.71;;0.61;0.5;0.57;0.4;;3.8;0.5
SO2;uur;�g/m�;20180109 07:00;20180109 08:00;4.3;4;1.6;1.4;;;0.85;;0.67;0.48;0.63;0.4;3.6;3.2;0.6
SO2;uur;�g/m�;20180109 08:00;20180109 09:00;4.2;4.1;2.1;2.1;;;0.76;;0.46;0.47;0.74;0.4;2.6;3.5;1.3
SO2;uur;�g/m�;20180109 09:00;20180109 10:00;6.1;4;3.2;2.4;;;0.7;;0.57;0.44;1.09;0.5;2.9;3.2;1.6
SO2;uur;�g/m�;20180109 10:00;20180109 11:00;8.6;4.2;5.1;4.3;;;0.61;;1.02;0.46;1.25;0.6;3.1;3.4;1.6
SO2;uur;�g/m�;20180109 11:00;20180109 12:00;8;4;5.3;4.8;;;0.76;;1.31;0.65;1.35;0.7;2.9;2.9;1.8
SO2;uur;�g/m�;20180109 12:00;20180109 13:00;6.6;4.6;5.9;7.1;;;1.01;;1.54;0.72;1.26;0.9;3.3;3.5;2.1
SO2;uur;�g/m�;20180109 13:00;20180109 14:00;6;4.8;7.7;7.4;;;1.36;;1.56;0.68;1.04;1;4.3;4.4;2.1
SO2;uur;�g/m�;20180109 14:00;20180109 15:00;6.4;5.1;7.6;4.6;;;1.19;;2.22;0.7;0.96;1;4.1;4.5;2.4
SO2;uur;�g/m�;20180109 15:00;20180109 16:00;5.8;5.1;7.1;4;;;1.17;;1.89;0.64;0.8;1.2;;5;3
SO2;uur;�g/m�;20180109 16:00;20180109 17:00;9.7;5.4;6.5;3.9;;;1.2;;1.84;0.58;0.52;1.1;;4.8;2.9
SO2;uur;�g/m�;20180109 17:00;20180109 18:00;12.6;5.8;5.7;3.5;;;0.99;;1.41;0.51;0.33;1;3.9;4.4;2.9
SO2;uur;�g/m�;20180109 18:00;20180109 19:00;10.5;5.6;4.9;3.6;;;1.01;;1.77;0.49;0.24;1;4;7.5;3.3
SO2;uur;�g/m�;20180109 19:00;20180109 20:00;6.9;5.2;4.9;3.2;;;1.08;;1.55;0.68;0.2;1.5;3.9;9.7;4.2
SO2;uur;�g/m�;20180109 20:00;20180109 21:00;5.1;4.9;4.2;2.7;;;1.04;;1.95;0.87;0.2;1.3;3.5;9.1;4.2
SO2;uur;�g/m�;20180109 21:00;20180109 22:00;4.2;4.4;4.3;3.2;;;0.94;;1.06;1.01;0.21;1.1;4.5;9.8;4.8
SO2;uur;�g/m�;20180109 22:00;20180109 23:00;3.5;4.6;4.1;2.6;;;0.81;;0.56;1.04;0.34;0.9;4.6;8.8;4.6